Tracking 28790 objects as of 19-Apr-2024
HD Live streaming from Space Station
objects crossing your sky now

FENGYUN 1C DEB

Track FENGYUN 1C DEB now!
10-day predictions


NORAD ID: 30905
Int'l Code: 1999-025AYT
Perigee: 817.7 km
Apogee: 906.9 km
Inclination: 98.9 °
Period: 102.0 minutes
Semi major axis: 7233 km
RCS: 0.0195 m2 (small)
Launch date: May 10, 1999
Source: People's Republic of China (PRC)
Launch site: Taiyaun Space Center, China (TSC)

Note: This is SATELLITE DEBRIS
Your satellite tracking list
Your tracking list is empty




NASA's NSSDC Master Catalog

Two Line Element Set (TLE):
1 30905U 99025AYT 24107.43989018  .00005349  00000-0  29346-2 0  9995
2 30905  98.9178 178.3205 0061651   1.9872 358.1533 14.11229133877167
Source of the keplerian elements: AFSPC